Location: *
(51.5000°N, 0.1100°W)
Time: 20:51:37
(UTC+00:00)

Cosmos 1400 Rocket - Pass Details

Date: 25 May 2024
Orbit: 501 x 544 km, 81.2° (Epoch: 16 June)

Event Time Altitude Azimuth Distance (km) Brightness Sun altitude
Exits shadow 00:07:03 36° 154° (SSE) 873 3.4 -17.5°
Maximum altitude 00:08:21 54° 98° (E) 665 3.1 -17.5°
Drops below altitude 10° 00:12:16 10° 21° (NNE) 1,813 6.6 -17.4°
Sets 00:14:27 0° 17° (NNE) 2,705 7.9 -17.4°
